Temperature
23 22 21 22 28 31 30 30 31 30 30 29 28 28 29 28 28 26 22 21 21 20 19 20 20 19 19 19 19 19 19 19 19 19 19 19 19 19 18 18 18 18 18 18 18 18 18 18 18
22 22 22 26 30 30 30 30 30 30 29 28 28 28 28 27 24 22 21 21 20 20 19 19 20 20 19 19 19 19 19 19 19 19 19 19 19 18 18 18 18 18 18 18 18 18 18 18 18
22 22 26 30 31 30 30 31 30 30 29 29 29 28 28 26 23 22 21 20 20 20 19 20 20 20 20 19 19 19 19 19 19 19 19 19 18 18 18 18 18 18 18 18 18 18 18 18 17
22 25 28 31 30 30 31 31 31 30 29 28 29 28 26 23 23 22 21 20 20 19 19 20 20 20 20 19 19 19 19 19 19 19 19 19 18 18 18 18 18 18 18 18 18 18 17 17 17
24 28 31 31 31 31 31 31 30 31 30 29 29 28 26 22 22 21 21 20 20 20 19 19 20 20 19 19 19 19 19 19 19 19 18 18 18 18 18 18 18 18 18 18 17 17 17 17 17
28 30 31 31 31 31 32 30 31 31 30 29 29 28 25 22 21 21 21 20 21 20 19 19 20 19 19 19 19 19 19 19 19 18 18 18 18 18 18 18 18 18 18 17 17 17 17 17 17
29 31 31 31 30 31 31 31 31 31 30 29 29 29 25 22 21 21 21 21 21 20 19 19 19 19 19 19 19 19 19 19 18 18 18 18 18 18 18 18 18 18 17 17 17 17 17 17 17
28 31 31 31 31 31 31 31 30 30 30 28 28 29 26 22 21 21 20 20 20 20 19 19 18 18 18 18 19 19 18 18 18 18 18 18 18 18 18 17 17 17 17 17 17 17 17 17 17
27 30 31 31 31 31 31 31 30 29 29 28 28 27 26 22 21 20 20 20 20 19 19 19 18 18 18 18 18 18 18 18 18 18 18 18 17 17 17 17 17 17 17 17 17 17 17 17 17
29 30 31 31 31 31 31 31 31 30 30 29 27 24 22 22 21 20 20 20 19 19 19 19 18 18 18 18 17 17 17 18 18 17 17 17 17 17 17 17 17 17 17 17 17 17 17 17 17
29 30 31 31 30 30 31 31 31 31 31 30 28 25 22 21 21 20 20 20 19 19 19 19 18 18 18 18 17 17 17 17 17 17 17 17 17 17 17 17 17 17 17 17 17 17 17 17 17
29 30 29 30 30 30 31 31 31 31 30 29 28 25 22 22 21 21 20 20 19 19 19 19 18 18 18 18 17 17 17 17 17 17 17 17 17 17 17 17 17 17 17 17 17 17 17 17 17
29 30 29 30 30 30 30 31 31 30 29 28 26 24 23 22 22 21 20 19 19 18 18 18 18 18 18 18 18 18 18 18 17 17 17 17 17 17 17 17 17 17 17 17 17 17 17 17 17
30 29 30 30 30 30 31 31 31 30 28 27 26 25 23 22 22 20 20 19 19 19 18 18 18 18 18 18 18 18 17 18 17 17 17 17 17 17 17 17 17 17 17 17 17 17 17 17 17
28 29 31 31 31 31 31 31 31 29 28 27 26 25 23 22 21 20 20 19 19 19 19 18 18 18 18 18 18 18 17 17 17 17 17 17 17 17 17 17 17 17 17 16 17 17 17 17 17
30 30 30 31 31 30 31 31 31 29 28 27 26 25 23 22 21 20 19 19 19 19 19 18 18 18 18 18 18 17 17 17 17 17 17 17 17 17 17 17 17 17 17 17 17 17 17 17 17
30 30 30 31 31 31 31 31 31 29 28 27 26 25 23 21 21 20 19 19 19 19 19 18 18 18 18 18 17 17 17 17 17 17 17 17 17 17 17 17 17 17 17 17 17 17 17 17 17
30 30 30 30 30 30 30 31 31 29 28 28 26 25 23 22 21 20 19 19 19 19 19 18 18 18 18 17 17 17 17 17 17 17 17 17 17 17 17 17 17 17 17 17 17 16 16 17 17
29 29 29 30 30 30 30 30 31 29 29 28 27 25 24 23 21 20 19 18 18 18 18 18 18 18 17 17 17 17 17 17 17 17 17 17 17 17 17 17 17 17 17 16 16 16 16 17 17
28 28 29 29 29 29 30 30 31 29 28 27 26 25 24 23 21 19 19 18 18 18 18 18 18 18 17 17 17 17 17 17 17 17 17 17 17 17 17 17 17 17 16 16 16 16 17 17 17
28 28 29 29 29 30 29 30 30 29 28 27 26 25 25 23 21 20 19 18 18 18 18 18 18 17 17 17 17 16 16 16 16 17 17 17 17 17 17 17 17 16 16 16 16 16 16 17 17
28 29 28 28 29 30 29 29 30 30 29 28 27 26 25 24 22 20 19 18 18 18 18 18 17 17 17 17 16 16 16 17 17 17 17 17 17 17 17 17 17 16 16 16 16 16 16 16 17
28 29 28 28 29 29 29 29 30 30 29 29 28 26 25 24 23 21 20 19 18 18 18 17 17 17 17 17 17 17 17 17 17 17 17 17 17 17 17 17 17 16 16 16 16 16 16 16 17
28 28 28 28 29 28 29 29 29 30 29 29 28 26 25 24 22 21 19 18 18 18 18 17 17 17 17 17 17 17 17 17 17 17 17 17 17 17 17 17 17 16 16 16 16 16 16 16 16
28 28 27 27 28 28 29 28 29 30 29 28 28 26 24 23 22 20 19 18 18 18 17 17 17 17 17 17 17 17 17 16 17 17 17 17 17 17 17 16 17 16 16 16 16 16 16 16 16
28 28 28 28 28 29 28 28 30 29 28 27 26 25 24 23 22 21 19 19 18 18 17 17 17 17 17 17 17 16 16 16 16 17 17 17 17 17 17 17 17 16 16 16 16 16 16 16 16
28 28 30 29 29 28 29 29 29 28 28 27 26 25 24 23 22 21 20 19 18 18 17 17 17 17 17 17 17 17 16 16 16 17 17 17 17 17 16 16 16 16 16 16 16 16 16 16 16
29 29 29 28 27 27 28 28 29 29 28 27 27 26 24 23 22 21 20 19 18 18 17 17 17 17 17 17 17 16 16 16 17 16 17 16 16 16 16 16 16 16 16 16 16 16 16 16 16
27 28 28 29 29 28 28 29 30 29 28 28 27 25 24 23 22 21 20 19 18 18 17 17 17 17 17 17 17 16 16 16 16 16 16 17 17 16 16 16 16 16 16 16 16 16 16 16 16
29 29 28 27 27 28 28 29 29 28 28 27 26 25 24 23 21 20 19 18 18 18 17 17 17 17 17 17 17 17 16 16 16 16 17 17 17 17 16 16 16 16 16 16 16 16 16 15 15
Wind_Speed
9 6 5 4 4 3 9 8 7 7 6 5 4 3 5 6 5 6 9 19 20 20 21 21 18 18 17 18 18 18 18 17 16 15 15 14 13 13 13 13 13 14 14 14 15 15 15 14 15
5 4 5 5 1 7 9 7 7 7 5 4 4 3 4 7 7 9 13 18 21 21 21 20 20 19 18 18 18 17 17 16 16 15 14 14 13 13 13 13 13 14 14 14 15 15 15 15 15
4 6 5 3 3 6 8 6 6 4 3 2 3 4 5 6 7 9 14 21 21 19 20 21 21 19 18 18 17 17 17 16 15 14 14 14 13 13 13 13 13 14 14 14 14 14 14 14 14
4 5 5 2 5 6 4 4 2 3 3 2 3 5 5 6 5 10 19 22 21 19 20 22 21 20 19 18 17 17 16 15 15 14 14 13 13 13 13 13 13 14 14 14 14 14 14 13 13
5 5 4 3 5 5 3 2 0 1 2 3 2 5 6 5 8 16 21 21 20 19 19 22 20 19 19 18 17 16 15 15 14 14 13 13 13 12 13 13 13 13 13 13 13 13 12 12 12
4 4 4 4 6 4 3 2 0 0 2 3 3 5 6 8 13 18 20 19 19 18 19 21 20 19 18 17 17 16 15 15 14 14 13 13 13 12 13 13 13 13 12 12 12 11 11 11 11
6 4 1 3 4 4 4 2 1 1 1 1 2 4 7 10 14 18 19 17 17 17 17 19 20 19 18 17 16 15 15 14 14 13 13 13 12 12 12 12 12 12 12 11 11 10 10 10 10
5 4 4 3 3 4 4 2 1 2 0 2 3 3 7 14 16 18 18 17 16 16 16 17 18 18 18 17 16 15 14 14 14 13 13 13 13 12 12 12 12 11 11 10 10 9 9 9 9
4 6 4 2 1 2 3 3 1 0 2 3 2 2 9 20 20 19 17 16 16 15 15 16 16 16 16 16 17 16 14 13 14 13 13 12 11 12 11 12 12 11 11 10 9 8 8 8 9
5 6 1 2 3 4 5 4 2 3 4 4 5 7 15 21 21 21 20 20 19 17 16 15 15 14 14 14 15 13 13 13 11 11 12 9 8 7 10 13 10 10 10 9 8 8 9 8 8
5 5 1 1 3 6 6 4 3 5 3 3 6 12 18 21 20 20 20 19 19 17 16 15 14 14 13 11 12 11 10 11 10 10 10 8 8 8 9 9 10 9 9 8 9 9 5 4 4
6 5 5 5 5 7 8 6 4 5 3 2 4 13 19 21 20 20 19 18 18 18 17 16 14 13 12 11 10 10 9 9 9 10 10 9 6 6 6 6 7 7 6 5 5 4 4 4 4
9 7 6 7 8 9 9 8 6 5 2 1 6 13 18 19 18 17 16 17 17 17 16 15 14 13 11 10 9 10 9 9 9 10 9 8 7 6 6 5 4 5 5 5 3 4 4 4 5
5 7 9 9 8 6 7 7 5 3 0 3 8 12 16 16 17 16 17 16 16 16 14 14 15 14 12 10 9 8 9 9 9 9 10 9 7 6 6 6 5 4 4 3 3 4 4 3 3
6 9 10 7 5 3 6 8 6 1 2 5 8 10 13 14 15 16 17 16 16 15 15 14 15 14 14 12 10 9 9 10 8 8 10 9 8 7 6 5 5 5 5 4 4 4 4 4 4
8 10 9 5 3 2 7 7 2 1 3 6 7 9 11 12 14 14 15 15 15 15 14 15 13 14 13 11 9 8 9 9 8 8 9 9 8 8 6 5 5 5 5 4 4 3 3 3 3
10 9 7 5 3 3 6 6 0 1 4 5 7 8 10 11 13 13 14 15 15 15 15 15 14 14 13 11 10 9 8 8 8 9 9 9 9 9 7 5 5 6 5 4 4 4 3 4 3
7 7 6 5 2 5 7 6 3 2 4 5 6 8 10 11 12 13 13 13 13 14 14 15 15 14 13 10 9 7 8 8 8 9 9 10 9 9 8 6 6 6 5 4 3 3 3 3 3
4 6 6 4 2 5 6 6 3 2 4 5 6 7 9 9 10 11 12 12 13 13 14 15 15 14 12 11 11 10 9 9 8 8 10 10 10 9 8 6 6 6 5 5 5 5 6 5 4
10 9 8 5 2 5 6 7 3 2 3 4 5 7 8 9 11 11 12 12 13 13 14 14 15 15 14 11 10 8 8 8 8 7 8 10 10 10 9 7 7 7 5 6 5 5 5 5 5
12 11 8 5 4 5 7 8 5 4 3 4 5 6 8 10 11 12 12 12 12 12 13 12 13 13 14 13 9 8 7 7 8 8 8 9 11 10 9 9 8 7 7 6 6 6 6 5 5
12 9 8 7 8 5 4 7 4 4 5 5 6 7 8 9 10 12 12 12 12 11 11 11 12 12 13 13 12 14 11 10 10 9 9 9 11 11 11 10 8 7 7 6 8 7 6 6 5
8 4 7 7 8 9 7 8 4 4 5 4 5 6 7 8 9 11 12 12 11 11 11 11 12 12 13 14 13 13 12 10 9 9 10 10 10 10 11 10 9 8 7 7 6 6 7 6 6
7 6 5 7 9 10 8 8 5 2 2 2 4 5 6 8 9 9 10 10 10 10 10 11 11 12 12 13 13 13 13 12 11 11 11 11 9 9 10 10 9 9 7 7 7 6 7 6 6
13 10 8 9 9 9 4 7 4 1 1 1 3 5 6 8 9 10 10 10 11 11 11 11 11 11 12 13 13 13 13 13 13 12 11 10 9 9 10 10 8 8 7 7 7 7 6 7 6
17 16 10 7 8 6 7 7 2 3 2 2 4 6 8 9 9 10 10 10 10 11 10 10 11 11 11 12 12 12 12 11 10 11 10 10 8 8 9 9 9 9 9 8 7 7 7 6 7
15 16 15 10 7 7 6 4 4 5 5 5 6 7 8 9 9 9 9 9 10 10 10 10 10 10 11 11 11 11 11 10 10 10 10 9 8 8 10 10 9 9 9 8 7 6 6 6 7
13 13 10 11 9 10 8 8 5 6 6 6 7 8 9 9 9 9 8 8 8 8 9 9 10 9 9 10 10 9 10 10 9 9 10 9 9 8 10 10 10 9 9 8 8 7 7 7 7
14 14 12 12 10 8 7 5 2 4 4 6 7 8 9 9 9 8 8 8 7 7 8 8 9 9 8 9 9 9 9 9 9 8 9 9 9 9 10 10 10 10 9 8 8 8 8 9 8
16 16 16 12 10 10 9 2 6 3 4 5 7 8 9 9 9 9 8 8 7 7 7 8 8 9 9 9 9 9 9 9 9 9 9 9 9 9 10 9 9 9 9 9 9 9 8 9 9
Wind_Direction
197 207 234 247 237 96 74 69 56 58 62 63 70 56 44 38 23 75 126 146 143 144 142 147 144 140 136 134 132 131 131 130 130 128 126 122 119 117 114 111 108 107 105 104 104 106 105 105 105
199 218 241 248 271 89 80 63 55 49 60 84 99 81 63 65 59 108 137 144 147 145 146 149 144 142 139 137 135 134 133 132 131 129 126 123 120 118 115 112 109 108 106 105 106 106 106 105 105
212 241 268 256 66 68 75 66 58 73 89 92 89 60 51 67 105 131 143 148 148 145 145 143 148 145 142 141 139 138 137 135 132 130 128 125 122 119 116 113 111 109 108 107 107 106 106 106 106
235 240 244 238 90 69 52 50 60 115 123 106 102 89 81 69 118 137 145 152 148 148 149 146 152 148 146 144 143 141 139 137 134 131 129 126 122 119 116 114 113 110 109 109 108 107 106 107 108
247 261 228 142 95 81 59 35 25 119 113 116 120 101 98 89 118 138 150 154 152 153 149 148 153 150 149 148 146 144 141 139 136 133 130 127 124 120 117 115 115 113 112 111 110 108 107 108 110
245 247 220 129 105 97 75 56 254 176 132 130 135 120 101 117 137 147 154 158 156 153 150 148 153 152 152 151 149 147 145 142 139 134 131 128 124 121 118 117 116 114 114 114 112 110 110 110 112
270 260 205 126 121 106 54 30 299 329 219 167 154 128 125 141 146 152 156 159 158 157 151 154 158 156 155 154 152 151 149 146 143 138 134 131 127 123 119 117 117 117 115 116 116 114 111 110 114
277 258 196 164 152 98 49 8 341 299 69 117 187 170 151 153 151 154 156 160 162 161 157 159 163 160 162 159 156 154 151 148 145 142 139 135 132 128 130 131 121 120 119 120 120 117 115 114 115
255 245 198 156 146 76 19 337 353 253 158 159 169 57 124 145 152 155 159 165 166 167 164 167 165 164 167 162 156 158 154 151 151 150 147 156 153 142 150 118 125 126 123 122 123 121 124 131 128
237 242 148 46 335 332 333 311 306 222 203 183 151 120 135 149 158 164 168 171 172 172 173 171 169 166 168 162 158 163 163 159 168 157 160 161 141 142 128 123 130 129 127 129 127 137 164 188 145
232 252 316 280 309 313 307 300 273 257 238 220 193 162 157 161 168 172 175 176 174 174 175 173 171 168 171 162 163 165 163 161 167 158 162 152 152 150 144 145 146 146 154 151 147 177 170 142 103
236 247 268 282 303 300 301 297 278 262 293 355 180 165 166 172 176 178 177 176 174 178 179 175 172 173 174 170 167 167 166 168 165 161 169 162 160 158 150 153 149 158 149 143 159 152 127 116 124
233 252 263 273 280 286 283 273 275 265 282 164 153 163 173 179 179 179 176 174 175 181 181 179 175 174 173 172 177 173 173 172 163 163 168 170 167 165 154 151 159 161 148 159 170 151 135 144 146
242 262 270 271 274 262 265 260 243 257 219 161 163 172 177 179 177 174 176 177 178 182 180 182 181 177 176 177 180 175 175 171 167 170 166 178 171 161 165 165 169 163 162 149 170 150 155 163 138
255 263 258 241 244 243 265 241 228 246 200 178 172 173 175 178 178 178 178 179 180 182 182 186 185 181 182 181 182 180 179 175 174 169 169 179 178 168 177 171 178 164 155 153 168 156 166 168 158
237 244 237 191 222 227 258 253 138 128 191 184 176 171 172 176 181 180 180 181 180 182 184 189 185 183 185 180 181 182 184 177 176 174 177 183 179 177 188 179 179 164 172 172 157 181 173 164 164
223 231 227 189 193 267 260 268 222 182 198 187 181 176 174 175 183 182 182 183 183 184 185 184 183 186 184 179 180 185 180 182 182 184 186 182 185 186 195 190 166 181 182 186 188 160 185 171 170
222 224 218 216 196 281 264 267 276 205 210 196 186 181 178 181 184 181 180 182 183 184 184 184 184 185 182 180 181 182 184 188 191 191 189 186 190 192 198 191 183 195 185 184 182 163 191 190 190
254 248 239 237 300 282 265 274 276 205 207 196 190 184 184 183 177 174 175 177 178 179 182 185 186 182 180 183 185 186 188 189 192 195 192 194 195 190 202 204 183 203 193 195 189 193 183 196 185
236 243 241 226 240 279 276 272 249 203 202 201 193 187 183 174 170 171 173 175 179 181 185 186 186 183 184 185 187 189 188 192 192 194 190 197 196 195 199 209 199 199 193 194 197 207 212 193 192
229 239 244 254 274 236 267 245 212 177 181 186 193 192 184 178 176 174 175 178 182 186 188 189 187 186 187 184 182 181 182 191 192 195 193 197 199 199 204 200 209 199 207 194 201 204 216 211 203
228 230 242 250 258 234 252 266 202 192 198 194 193 191 187 181 178 175 177 180 183 187 186 187 190 187 185 185 188 188 193 196 197 195 191 194 200 202 201 200 202 208 214 196 208 205 217 222 213
225 207 227 242 249 261 232 260 235 183 225 201 188 188 187 182 178 176 177 176 178 182 183 184 187 188 186 188 191 195 201 200 196 196 193 197 196 203 203 199 200 203 214 211 218 198 223 221 230
198 192 211 234 240 242 237 252 253 206 233 181 170 175 176 173 168 169 168 168 171 175 179 182 184 189 187 188 192 199 202 200 196 196 195 198 195 199 200 200 201 204 211 207 211 212 213 228 233
200 206 211 214 221 234 192 242 256 66 55 241 178 167 164 164 164 164 164 167 170 175 179 180 183 187 188 192 196 201 204 202 200 198 198 199 195 195 194 200 200 204 205 207 208 209 221 217 221
204 215 227 231 230 213 184 234 201 115 114 138 150 151 154 158 160 164 166 168 173 175 177 178 183 186 188 194 197 200 203 202 200 200 198 196 199 200 191 197 199 203 203 205 205 213 212 216 222
206 220 236 249 256 253 216 211 198 158 160 150 146 148 152 156 158 160 164 170 174 175 176 177 178 181 186 190 190 193 198 200 197 195 199 198 198 197 191 195 197 197 197 199 202 216 216 218 224
229 217 217 231 234 239 229 226 220 180 173 160 160 158 154 153 155 156 162 166 169 172 173 175 174 178 184 187 187 188 192 193 192 191 195 198 198 198 194 195 195 196 196 199 209 214 215 221 225
200 209 215 225 237 244 238 214 148 174 174 171 166 162 159 157 156 155 157 157 159 162 165 172 172 174 178 182 186 185 186 187 188 191 196 197 197 196 198 199 197 198 200 201 208 221 212 217 220
204 209 208 216 219 239 260 210 111 141 158 161 160 156 155 154 151 149 150 150 155 161 164 168 173 176 178 180 182 183 185 184 184 189 195 195 195 198 200 201 201 203 204 204 208 216 215 216 218
Height
1508 1507 1508 1509 1502 1494 1499 1496 1492 1493 1494 1498 1500 1499 1499 1501 1503 1513 1517 1518 1521 1525 1527 1529 1532 1535 1538 1540 1542 1544 1546 1547 1548 1550 1551 1552 1553 1554 1555 1556 1556 1557 1558 1559 1559 1560 1561 1562 1562
1510 1509 1510 1506 1495 1502 1503 1496 1495 1496 1498 1500 1501 1502 1502 1505 1510 1513 1516 1519 1523 1526 1528 1531 1534 1537 1539 1541 1544 1545 1547 1549 1550 1552 1553 1554 1555 1556 1557 1558 1559 1559 1560 1561 1562 1562 1563 1564 1565
1510 1510 1510 1497 1495 1500 1501 1496 1496 1498 1500 1501 1502 1503 1505 1510 1514 1515 1517 1520 1525 1528 1530 1532 1535 1538 1541 1543 1545 1547 1549 1550 1552 1553 1554 1556 1557 1558 1559 1560 1561 1561 1562 1563 1564 1565 1566 1566 1567
1512 1512 1507 1497 1498 1497 1497 1496 1497 1498 1500 1502 1502 1505 1510 1514 1515 1516 1518 1522 1526 1529 1532 1533 1536 1539 1542 1544 1546 1548 1550 1552 1553 1555 1556 1557 1559 1560 1561 1562 1563 1564 1564 1565 1566 1567 1568 1569 1570
1513 1508 1498 1497 1497 1496 1496 1497 1497 1497 1499 1502 1503 1505 1511 1515 1515 1517 1520 1524 1527 1531 1534 1535 1538 1541 1543 1546 1548 1550 1551 1553 1555 1556 1558 1559 1560 1561 1563 1563 1565 1566 1567 1568 1569 1570 1571 1571 1572
1511 1503 1497 1499 1499 1496 1495 1497 1497 1497 1499 1502 1504 1506 1513 1516 1517 1519 1522 1526 1530 1533 1535 1536 1539 1542 1544 1547 1549 1551 1553 1554 1556 1558 1559 1561 1562 1563 1564 1565 1566 1568 1569 1570 1571 1572 1573 1574 1575
1509 1499 1496 1497 1499 1497 1497 1498 1497 1497 1499 1502 1504 1505 1513 1516 1518 1521 1524 1528 1532 1535 1537 1537 1540 1542 1545 1548 1550 1552 1554 1556 1558 1559 1561 1562 1563 1565 1566 1567 1568 1569 1570 1572 1573 1574 1575 1576 1577
1509 1500 1496 1496 1498 1497 1497 1498 1498 1498 1500 1504 1505 1505 1510 1515 1517 1521 1525 1528 1532 1535 1537 1539 1542 1544 1546 1548 1551 1553 1555 1557 1559 1560 1562 1563 1565 1566 1568 1569 1570 1571 1572 1573 1575 1576 1577 1578 1579
1510 1502 1497 1496 1497 1496 1497 1497 1498 1500 1501 1504 1505 1507 1509 1512 1516 1520 1524 1528 1531 1534 1537 1539 1542 1545 1548 1550 1551 1554 1556 1558 1560 1561 1563 1565 1567 1569 1570 1571 1571 1572 1573 1575 1576 1577 1579 1580 1581
1507 1499 1496 1497 1497 1496 1497 1497 1497 1498 1499 1502 1505 1508 1509 1511 1514 1517 1521 1524 1528 1532 1536 1539 1542 1544 1548 1551 1552 1555 1557 1559 1561 1563 1564 1567 1568 1570 1572 1571 1572 1574 1575 1576 1578 1579 1580 1582 1584
1504 1499 1498 1499 1499 1499 1497 1496 1496 1495 1494 1498 1502 1506 1508 1510 1513 1516 1519 1523 1527 1530 1535 1538 1541 1543 1547 1550 1552 1554 1557 1558 1561 1563 1565 1567 1569 1571 1573 1573 1574 1575 1577 1579 1579 1581 1583 1584 1585
1503 1501 1501 1500 1499 1498 1497 1495 1495 1495 1496 1498 1500 1503 1505 1508 1511 1514 1518 1522 1526 1529 1533 1536 1539 1542 1546 1549 1552 1554 1556 1558 1561 1562 1565 1567 1569 1571 1573 1574 1576 1577 1579 1580 1582 1583 1584 1584 1585
1502 1500 1500 1499 1498 1497 1497 1494 1495 1494 1496 1498 1499 1502 1504 1507 1511 1515 1518 1522 1525 1528 1531 1534 1537 1540 1544 1547 1550 1553 1556 1558 1561 1562 1564 1567 1569 1571 1573 1574 1576 1578 1579 1580 1581 1583 1583 1585 1586
1500 1500 1498 1497 1495 1495 1494 1492 1493 1493 1495 1497 1499 1501 1503 1506 1510 1513 1516 1519 1521 1525 1528 1531 1534 1538 1542 1545 1549 1552 1555 1557 1560 1562 1564 1566 1569 1571 1573 1574 1576 1578 1580 1581 1582 1583 1584 1585 1586
1501 1498 1494 1492 1493 1493 1493 1489 1489 1492 1494 1496 1498 1500 1502 1505 1508 1510 1513 1516 1519 1523 1526 1529 1532 1536 1540 1544 1547 1551 1554 1557 1560 1562 1563 1565 1569 1570 1572 1575 1576 1578 1579 1580 1581 1582 1584 1585 1586
1497 1495 1493 1488 1491 1491 1493 1489 1487 1492 1493 1494 1496 1499 1502 1504 1507 1509 1511 1514 1517 1520 1523 1526 1531 1534 1538 1542 1545 1549 1553 1556 1558 1561 1563 1565 1568 1569 1571 1574 1576 1577 1579 1580 1581 1583 1584 1586 1586
1493 1492 1490 1489 1489 1489 1489 1487 1486 1490 1491 1493 1495 1498 1501 1503 1506 1508 1510 1512 1515 1518 1521 1524 1527 1531 1536 1540 1543 1547 1551 1554 1557 1560 1562 1564 1566 1569 1571 1574 1575 1576 1579 1580 1582 1583 1584 1585 1586
1491 1490 1491 1491 1488 1489 1487 1485 1484 1488 1489 1491 1494 1496 1499 1502 1504 1506 1508 1510 1513 1515 1518 1521 1525 1529 1534 1538 1542 1545 1549 1552 1555 1558 1560 1563 1565 1568 1570 1572 1574 1576 1578 1579 1581 1582 1583 1584 1585
1491 1492 1493 1490 1488 1489 1486 1484 1482 1486 1488 1489 1492 1495 1497 1500 1503 1505 1506 1508 1510 1513 1516 1519 1523 1527 1531 1535 1539 1542 1546 1550 1553 1556 1559 1561 1564 1566 1569 1572 1573 1575 1577 1578 1580 1581 1582 1584 1585
1494 1496 1492 1489 1488 1488 1486 1483 1481 1484 1486 1489 1491 1493 1496 1499 1501 1503 1505 1507 1508 1510 1513 1517 1520 1524 1528 1532 1536 1540 1544 1548 1551 1554 1556 1559 1562 1565 1568 1569 1572 1573 1575 1577 1578 1579 1582 1583 1584
1493 1493 1490 1491 1488 1485 1486 1483 1480 1482 1486 1488 1490 1492 1494 1496 1499 1502 1504 1505 1507 1509 1511 1515 1518 1522 1526 1530 1534 1538 1542 1545 1549 1551 1554 1557 1560 1563 1565 1567 1570 1572 1574 1576 1577 1578 1580 1582 1583
1492 1487 1489 1491 1492 1485 1487 1490 1480 1478 1481 1484 1487 1489 1491 1495 1497 1500 1502 1504 1506 1508 1510 1513 1516 1520 1523 1527 1531 1535 1538 1541 1545 1549 1552 1555 1558 1561 1564 1566 1568 1570 1573 1574 1576 1577 1579 1580 1582
1485 1485 1488 1488 1489 1489 1485 1489 1478 1476 1479 1479 1483 1487 1489 1493 1495 1498 1501 1503 1505 1507 1509 1512 1514 1517 1521 1524 1528 1532 1535 1539 1543 1547 1549 1552 1555 1558 1561 1564 1566 1568 1571 1572 1574 1575 1577 1578 1580
1484 1488 1488 1487 1485 1497 1486 1490 1484 1472 1476 1477 1481 1485 1488 1491 1494 1497 1500 1502 1504 1506 1508 1510 1512 1515 1518 1521 1525 1528 1532 1535 1539 1543 1546 1549 1553 1556 1559 1561 1564 1566 1568 1570 1571 1573 1574 1576 1577
1483 1489 1496 1498 1496 1492 1481 1487 1481 1472 1474 1477 1480 1484 1487 1490 1493 1496 1498 1500 1503 1505 1507 1509 1511 1513 1516 1519 1522 1525 1529 1532 1536 1539 1543 1547 1550 1553 1555 1559 1561 1564 1566 1567 1569 1571 1573 1574 1575
1479 1480 1490 1497 1493 1483 1485 1485 1473 1473 1477 1479 1480 1483 1487 1489 1492 1495 1497 1499 1502 1504 1506 1507 1509 1511 1514 1516 1519 1523 1526 1530 1533 1536 1540 1543 1547 1551 1553 1556 1558 1561 1563 1565 1567 1569 1570 1571 1572
1474 1475 1466 1475 1481 1485 1478 1476 1471 1472 1475 1478 1480 1483 1486 1489 1492 1494 1497 1499 1501 1503 1504 1506 1508 1510 1512 1514 1517 1520 1523 1527 1530 1533 1537 1541 1544 1548 1550 1553 1555 1558 1560 1562 1564 1566 1567 1569 1570
1465 1465 1472 1478 1492 1494 1484 1480 1473 1471 1472 1475 1479 1482 1485 1489 1491 1494 1497 1499 1501 1502 1504 1505 1507 1509 1511 1513 1516 1518 1521 1524 1528 1531 1535 1538 1541 1545 1547 1550 1553 1555 1557 1559 1561 1563 1564 1566 1567
1470 1470 1469 1471 1472 1485 1488 1478 1461 1467 1469 1473 1476 1480 1484 1488 1491 1494 1496 1498 1500 1502 1503 1505 1507 1509 1510 1512 1515 1517 1520 1523 1526 1529 1533 1536 1539 1542 1545 1547 1550 1552 1554 1556 1557 1560 1561 1562 1564
1458 1461 1466 1477 1480 1476 1477 1474 1462 1466 1469 1473 1476 1480 1484 1488 1491 1494 1496 1498 1499 1501 1503 1504 1506 1508 1510 1512 1514 1516 1519 1522 1525 1528 1531 1534 1537 1540 1542 1545 1547 1549 1551 1553 1554 1556 1558 1559 1560